DW0000 Weather Reports


time (UTC)temp
F
wind
direction
speed
knots
gust
knots
rain 1hr
in
rain 24hr
in
rain mn
in
humidity
%
barometer
mb
20260505034006 65 60 2.6 6.1 0.00 0.00 0.00 79 1029.5
20260505033505 65 45 2.6 6.1 0.00 0.00 0.00 78 1029.6
20260505033007 65 63 3.5 7.0 0.00 0.00 0.00 78 1029.6
20260505032505 65 71 3.5 8.7 0.00 0.00 0.00 78 1029.6
20260505032005 65 60 4.3 7.0 0.00 0.00 0.00 77 1029.5
20260505025507 67 37 4.3 7.0 0.00 0.00 0.00 74 1029.5
20260505025005 67 49 4.3 7.8 0.00 0.00 0.00 74 1029.5
20260505024007 67 81 5.2 10.4 0.00 0.00 0.00 73 1029.5
20260505023005 67 88 0.9 7.0 0.00 0.00 0.00 74 1029.5
20260505022506 67 94 3.5 7.8 0.00 0.00 0.00 74 1029.6
20260505021506 67 51 5.2 10.4 0.00 0.00 0.00 72 1029.5
20260505015505 68 47 5.2 7.8 0.00 0.00 0.00 72 1029.5
20260505015006 68 69 5.2 8.7 0.00 0.00 0.00 71 1029.5
20260505014506 69 87 3.5 10.4 0.00 0.00 0.00 72 1029.5
20260505014005 69 36 6.1 11.3 0.00 0.00 0.00 70 1029.6
20260505013506 69 61 5.2 10.4 0.00 0.00 0.00 70 1029.8
20260505005507 68 31 2.6 7.8 0.00 0.00 0.00 73 1030.1
20260505005005 68 83 5.2 10.4 0.00 0.00 0.00 72 1030.2
20260505004007 67 50 4.3 10.4 0.00 0.00 0.00 74 1030.5
20260505003505 67 77 4.3 7.8 0.00 0.00 0.00 75 1030.5
20260505003005 66 48 3.5 7.0 0.00 0.00 0.00 76 1030.6
20260505002007 66 73 4.3 8.7 0.00 0.00 0.00 74 1030.8
20260505001005 66 98 4.3 10.4 0.00 0.00 0.00 75 1030.8
20260505000505 66 85 4.3 8.7 0.00 0.00 0.00 74 1030.9
20260504235505 66 77 5.2 7.0 0.00 0.00 0.00 76 1030.9
20260504233506 65 56 3.5 8.7 0.00 0.00 0.00 75 1031.2
20260504230505 64 80 5.2 10.4 0.00 0.00 0.00 76 1031.6
20260504225505 63 35 4.3 8.7 0.00 0.00 0.00 79 1031.7
20260504225005 62 63 5.2 11.3 0.00 0.00 0.00 81 1031.7
20260504223505 61 88 5.2 7.0 0.00 0.00 0.00 83 1031.8
20260504223006 60 94 5.2 8.7 0.00 0.00 0.00 85 1031.7
20260504222505 59 86 5.2 7.8 0.00 0.00 0.00 85 1031.8
20260504221505 58 74 4.3 10.4 0.00 0.00 0.00 83 1031.9
20260504221007 58 60 6.1 8.7 0.00 0.00 0.00 83 1031.8
20260504220006 58 38 4.3 6.1 0.00 0.00 0.00 83 1032.0
20260504215505 58 24 4.3 7.0 0.00 0.00 0.00 83 1031.8
20260504214004 58 37 4.3 7.0 0.00 0.00 0.00 82 1031.6
20260504213505 58 64 2.6 5.2 0.00 0.00 0.00 83 1031.7
20260504213004 57 96 2.6 4.3 0.00 0.00 0.00 85 1031.7
20260504212005 56 65 1.7 5.2 0.00 0.00 0.00 86 1031.9
20260504210005 55 71 3.5 6.1 0.00 0.00 0.00 87 1031.8
20260504205505 55 74 2.6 5.2 0.00 0.00 0.00 87 1031.8
20260504204505 55 78 2.6 5.2 0.00 0.00 0.00 88 1031.7
20260504203505 54 104 1.7 5.2 0.00 0.00 0.00 88 1031.7
20260504203005 54 98 2.6 6.1 0.00 0.00 0.00 89 1031.6
20260504202506 54 89 2.6 5.2 0.00 0.00 0.00 89 1031.6
20260504202005 54 99 2.6 4.3 0.00 0.00 0.00 89 1031.7
20260504201505 53 92 2.6 5.2 0.00 0.00 0.00 89 1031.7
20260504201006 53 86 3.5 5.2 0.00 0.00 0.00 89 1031.7
20260504200505 53 87 2.6 4.3 0.00 0.00 0.00 89 1031.7
20260504200005 53 80 1.7 2.6 0.00 0.00 0.00 89 1031.7
20260504195505 53 102 0.9 1.7 0.00 0.00 0.00 89 1031.7
20260504194005 53 78 1.7 4.3 0.00 0.00 0.00 89 1031.6
20260504193504 52 73 2.6 4.3 0.00 0.00 0.00 89 1031.8
20260504193007 52 58 2.6 5.2 0.00 0.00 0.00 89 1031.7
20260504192506 52 77 2.6 4.3 0.00 0.00 0.00 89 1031.7
20260504192005 52 74 1.7 4.3 0.00 0.00 0.00 89 1031.7
20260504191504 52 61 1.7 2.6 0.00 0.00 0.00 89 1031.6
20260504191004 52 46 0.9 2.6 0.00 0.00 0.00 89 1031.7
20260504184506 52 66 1.7 4.3 0.00 0.00 0.00 89 1031.5
20260504184005 52 67 2.6 4.3 0.00 0.00 0.00 89 1031.5
20260504180006 52 84 3.5 6.1 0.00 0.00 0.00 89 1031.6
20260504174506 52 88 2.6 6.1 0.00 0.00 0.00 89 1031.5
20260504173505 52 72 1.7 2.6 0.00 0.00 0.00 89 1031.7
20260504173006 52 89 2.6 4.3 0.00 0.00 0.00 88 1031.6
20260504172005 52 6 0.9 1.7 0.00 0.00 0.00 88 1031.5
20260504171004 52 40 0.9 2.6 0.00 0.00 0.00 89 1031.5
20260504151006 53 84 1.7 2.6 0.00 0.00 0.00 85 1031.9
20260504141006 54 185 0.9 1.7 0.00 0.00 0.00 81 1032.4
20260504130506 54 58 1.7 2.6 0.00 0.00 0.00 80 1032.8
20260504081005 54 59 0.9 1.7 0.00 0.00 0.00 81 1033.2
20260504050507 60 143 0.9 4.3 0.00 0.00 0.00 73 1031.7
20260504045008 61 141 1.7 5.2 0.00 0.00 0.00 72 1032.0
20260504044007 61 144 2.6 4.3 0.00 0.00 0.00 71 1031.8
20260504042505 61 131 1.7 2.6 0.00 0.00 0.00 69 1031.9
20260504042007 62 48 1.7 5.2 0.00 0.00 0.00 69 1031.9
20260504041505 62 122 2.6 5.2 0.00 0.00 0.00 68 1031.9
20260504040006 63 39 2.6 6.1 0.00 0.00 0.00 67 1031.9
20260504035505 64 155 3.5 6.1 0.00 0.00 0.00 66 1032.0
20260504035007 64 34 2.6 5.2 0.00 0.00 0.00 66 1031.8